contact:dominique.lefevre@mio.osupytheas.fr, maurice.libes@osupytheas.fr, didier.mallarino@osupytheas.fr
Project:EMSO http://www.emso-fr.org/EMSO-France
Depth: 2436.0 m
Title:EMSO Ligure Ouest : Data MII capteur AQUADOPP
Date,Latitude,Longitude,X_East,Y_North,Z_Up,Amplitude_X,Amplitude_Y,Amplitude_Z,Batterie,SoundSpeed,Heading,Pitch,Roll,Pressure,TIS,Speed,Direction
, degrees North, degrees East, m.s-1, m.s-1,m.s-1, 1, 1, 1, Volt, m.s-1, degree, degree, degree, dbar, degree_C, m.s-1, degree
2023-12-04T00:04:03,42.805,6.029,0.023,-0.021,-0.032,109.0,108.0,105.0,13.4,1505.2,348.1,-0.7,1.8,2471.662,13.28,0.031,132.4
2023-12-04T00:07:03,42.805,6.029,0.043,-0.043,-0.037,109.0,108.0,106.0,13.3,1505.2,349.4,-0.8,1.8,2471.628,13.29,0.06,135.0
2023-12-04T00:10:03,42.805,6.029,0.025,-0.032,0.01,109.0,108.0,105.0,13.3,1505.2,0.8,-0.7,1.8,2471.649,13.29,0.04,142.0
2023-12-04T00:13:03,42.805,6.029,0.028,-0.038,-0.007,107.0,108.0,105.0,13.4,1505.2,354.8,-0.7,1.8,2471.639,13.29,0.047,143.6
2023-12-04T00:16:03,42.805,6.029,0.025,-0.045,-0.024,108.0,108.0,105.0,13.3,1505.2,343.2,-0.8,1.8,2471.598,13.29,0.051,150.9
2023-12-04T00:19:03,42.805,6.029,0.028,-0.033,-0.017,108.0,108.0,106.0,13.4,1505.2,350.3,-0.8,1.8,2471.587,13.29,0.043,139.7
2023-12-04T00:22:03,42.805,6.029,0.034,-0.036,0.005,109.0,106.0,106.0,13.4,1505.2,351.3,-0.8,1.8,2471.558,13.29,0.049,136.6
2023-12-04T00:25:03,42.805,6.029,0.027,-0.045,-0.034,108.0,108.0,106.0,13.4,1505.2,0.9,-0.8,1.8,2471.626,13.29,0.052,149.0
2023-12-04T00:28:03,42.805,6.029,0.027,-0.032,-0.033,109.0,108.0,106.0,13.4,1505.2,348.3,-0.8,1.8,2471.575,13.29,0.041,139.8
2023-12-04T00:31:03,42.805,6.029,0.017,-0.033,-0.01,108.0,109.0,106.0,13.4,1505.2,353.7,-0.8,1.8,2471.575,13.29,0.037,152.7
2023-12-04T00:34:03,42.805,6.029,0.023,-0.047,-0.022,110.0,108.0,106.0,13.4,1505.2,345.9,-0.8,1.8,2471.571,13.29,0.052,153.9
2023-12-04T00:37:03,42.805,6.029,0.04,-0.038,-0.035,108.0,109.0,105.0,13.4,1505.2,347.0,-0.7,1.8,2471.575,13.29,0.055,133.5
2023-12-04T00:40:03,42.805,6.029,0.03,-0.04,-0.02,108.0,108.0,106.0,13.4,1505.2,345.7,-0.8,1.8,2471.546,13.29,0.05,143.1
2023-12-04T00:43:03,42.805,6.029,0.036,-0.032,-0.029,108.0,109.0,106.0,13.4,1505.2,342.0,-0.8,1.8,2471.55,13.29,0.048,131.6
2023-12-04T00:46:03,42.805,6.029,0.022,-0.022,-0.018,109.0,107.0,107.0,13.4,1505.2,354.6,-0.8,1.8,2471.576,13.29,0.031,135.0
2023-12-04T00:49:03,42.805,6.029,0.019,-0.022,-0.001,109.0,108.0,104.0,13.4,1505.2,355.7,-0.7,1.8,2471.547,13.29,0.029,139.2
2023-12-04T00:52:03,42.805,6.029,0.034,-0.048,0.004,108.0,108.0,106.0,13.3,1505.2,337.7,-0.7,1.8,2471.574,13.29,0.058,144.7
2023-12-04T00:55:03,42.805,6.029,0.02,-0.034,-0.028,107.0,107.0,106.0,13.4,1505.2,359.1,-0.8,1.8,2471.52,13.29,0.039,149.5
2023-12-04T00:58:03,42.805,6.029,0.027,-0.04,0.009,109.0,107.0,106.0,13.4,1505.2,345.5,-0.8,1.8,2471.56,13.29,0.048,146.0
2023-12-04T01:04:03,42.805,6.029,0.03,-0.031,-0.028,110.0,109.0,106.0,13.4,1505.2,338.6,-0.8,1.8,2471.665,13.28,0.043,135.9
2023-12-04T01:07:03,42.805,6.029,0.035,-0.019,-0.017,109.0,108.0,106.0,13.4,1505.2,1.6,-0.8,1.8,2471.611,13.29,0.039,118.5
2023-12-04T01:10:03,42.805,6.029,0.022,-0.045,-0.016,109.0,108.0,107.0,13.3,1505.2,349.9,-0.7,1.8,2471.577,13.29,0.05,153.9
2023-12-04T01:13:03,42.805,6.029,0.021,-0.045,0.005,110.0,108.0,106.0,13.4,1505.2,354.8,-0.8,1.8,2471.545,13.29,0.049,155.0
2023-12-04T01:16:03,42.805,6.029,0.036,-0.047,-0.019,108.0,109.0,105.0,13.3,1505.2,351.2,-0.7,1.8,2471.565,13.29,0.059,142.5
2023-12-04T01:19:03,42.805,6.029,0.013,-0.039,0.006,109.0,109.0,106.0,13.3,1505.2,355.0,-0.8,1.8,2471.575,13.29,0.041,161.6
2023-12-04T01:22:03,42.805,6.029,0.051,-0.012,-0.037,110.0,107.0,106.0,13.4,1505.2,337.6,-0.8,1.8,2471.553,13.29,0.052,103.2
2023-12-04T01:25:03,42.805,6.029,0.008,0.001,0.006,109.0,108.0,106.0,13.4,1505.2,357.6,-0.7,1.8,2471.565,13.29,0.008,82.9
2023-12-04T01:28:03,42.805,6.029,0.034,-0.036,0.005,109.0,108.0,107.0,13.4,1505.2,345.1,-0.8,1.8,2471.592,13.29,0.049,136.6
2023-12-04T01:31:03,42.805,6.029,0.033,-0.045,-0.022,108.0,108.0,106.0,13.3,1505.2,344.1,-0.8,1.8,2471.584,13.29,0.055,143.7
2023-12-04T01:34:03,42.805,6.029,0.029,-0.037,0.011,108.0,108.0,106.0,13.3,1505.2,337.2,-0.8,1.8,2471.577,13.29,0.047,141.9
2023-12-04T01:37:03,42.805,6.029,0.023,-0.044,0.003,108.0,108.0,106.0,13.4,1505.2,1.6,-0.7,1.8,2471.586,13.29,0.049,152.4
2023-12-04T01:40:03,42.805,6.029,0.021,-0.029,-0.023,109.0,108.0,105.0,13.4,1505.2,356.6,-0.8,1.8,2471.629,13.29,0.035,144.1
2023-12-04T01:43:03,42.805,6.029,0.019,-0.043,-0.002,110.0,108.0,106.0,13.4,1505.2,340.4,-0.8,1.8,2471.59,13.29,0.047,156.2
2023-12-04T01:46:03,42.805,6.029,0.026,-0.031,-0.006,109.0,108.0,106.0,13.4,1505.2,356.6,-0.8,1.8,2471.558,13.29,0.04,140.0
2023-12-04T01:49:03,42.805,6.029,0.026,-0.024,0.001,108.0,108.0,106.0,13.4,1505.2,345.3,-0.8,1.8,2471.586,13.29,0.035,132.7
2023-12-04T01:52:03,42.805,6.029,0.001,-0.029,-0.007,109.0,108.0,105.0,13.4,1505.2,357.3,-0.8,1.8,2471.55,13.29,0.029,178.0
2023-12-04T01:55:03,42.805,6.029,0.032,-0.021,0.0,109.0,108.0,107.0,13.4,1505.2,337.6,-0.8,1.8,2471.555,13.29,0.038,123.3
2023-12-04T01:58:03,42.805,6.029,0.026,-0.045,-0.019,109.0,109.0,105.0,13.4,1505.2,355.4,-0.8,1.8,2471.557,13.29,0.051,150.0
2023-12-04T02:04:03,42.805,6.029,0.023,-0.032,-0.027,109.0,109.0,106.0,13.4,1505.2,337.4,-0.8,1.8,2471.586,13.28,0.039,144.3
2023-12-04T02:07:03,42.805,6.029,0.025,-0.041,-0.002,109.0,108.0,105.0,13.4,1505.2,0.8,-0.8,1.8,2471.605,13.29,0.048,148.6
2023-12-04T02:10:03,42.805,6.029,0.042,-0.029,0.0,108.0,108.0,106.0,13.4,1505.2,344.8,-0.7,1.8,2471.605,13.29,0.051,124.6
2023-12-04T02:13:03,42.805,6.029,0.035,-0.046,-0.039,109.0,108.0,106.0,13.4,1505.2,353.4,-0.8,1.8,2471.563,13.29,0.057,142.7
2023-12-04T02:16:03,42.805,6.029,0.022,-0.034,0.015,109.0,109.0,106.0,13.3,1505.2,353.6,-0.7,1.8,2471.56,13.29,0.04,147.1
2023-12-04T02:19:03,42.805,6.029,0.036,-0.012,-0.001,108.0,108.0,106.0,13.3,1505.2,340.0,-0.8,1.8,2471.588,13.29,0.037,108.4
2023-12-04T02:22:03,42.805,6.029,0.039,-0.025,-0.026,109.0,107.0,107.0,13.3,1505.2,352.3,-0.8,1.8,2471.519,13.29,0.046,122.7
2023-12-04T02:25:03,42.805,6.029,0.011,-0.059,-0.024,108.0,107.0,105.0,13.4,1505.2,0.8,-0.8,1.8,2471.585,13.29,0.06,169.4
2023-12-04T02:28:03,42.805,6.029,0.032,-0.027,0.011,109.0,108.0,106.0,13.4,1505.2,344.9,-0.8,1.8,2471.575,13.29,0.041,130.2
2023-12-04T02:31:03,42.805,6.029,0.036,-0.043,-0.005,109.0,110.0,106.0,13.4,1505.2,351.4,-0.7,1.8,2471.525,13.29,0.056,140.1
2023-12-04T02:34:03,42.805,6.029,0.03,-0.036,0.007,109.0,108.0,106.0,13.4,1505.2,343.7,-0.7,1.8,2471.57,13.29,0.046,140.2
2023-12-04T02:37:03,42.805,6.029,0.02,-0.027,-0.007,109.0,108.0,107.0,13.4,1505.2,353.6,-0.8,1.8,2471.544,13.29,0.033,143.5
2023-12-04T02:40:03,42.805,6.029,0.037,-0.029,-0.014,110.0,109.0,106.0,13.3,1505.2,348.1,-0.7,1.8,2471.567,13.29,0.047,128.1
2023-12-04T02:43:03,42.805,6.029,0.031,-0.049,-0.009,108.0,107.0,106.0,13.3,1505.2,348.6,-0.8,1.8,2471.552,13.29,0.057,147.7
2023-12-04T02:46:03,42.805,6.029,0.012,-0.034,-0.004,108.0,109.0,107.0,13.4,1505.2,350.7,-0.8,1.8,2471.561,13.29,0.036,160.6
2023-12-04T02:49:03,42.805,6.029,0.002,-0.041,-0.032,108.0,107.0,107.0,13.4,1505.2,0.8,-0.8,1.8,2471.586,13.29,0.041,177.2
2023-12-04T02:52:03,42.805,6.029,0.033,-0.044,-0.022,109.0,109.0,105.0,13.3,1505.2,350.2,-0.8,1.8,2471.525,13.29,0.055,143.1
2023-12-04T02:55:03,42.805,6.029,0.049,-0.02,-0.007,108.0,108.0,106.0,13.4,1505.2,339.8,-0.8,1.8,2471.561,13.29,0.052,112.2
2023-12-04T02:58:03,42.805,6.029,0.038,-0.056,-0.024,110.0,108.0,106.0,13.4,1505.2,349.2,-0.8,1.8,2471.519,13.29,0.067,145.8
2023-12-04T03:04:03,42.805,6.029,0.03,-0.027,-0.031,109.0,109.0,105.0,13.4,1505.2,350.8,-0.8,1.8,2471.598,13.28,0.04,132.0
2023-12-04T03:07:03,42.805,6.029,0.05,-0.046,-0.005,109.0,107.0,106.0,13.4,1505.2,336.5,-0.7,1.8,2471.546,13.29,0.067,132.6
2023-12-04T03:10:03,42.805,6.029,0.005,-0.02,0.0,109.0,108.0,106.0,13.4,1505.2,356.4,-0.8,1.8,2471.553,13.29,0.02,166.0
2023-12-04T03:13:03,42.805,6.029,0.038,-0.044,-0.006,109.0,107.0,105.0,13.4,1505.2,356.4,-0.8,1.8,2471.593,13.29,0.058,139.2
2023-12-04T03:16:03,42.805,6.029,0.046,-0.039,0.001,108.0,108.0,106.0,13.3,1505.2,343.5,-0.8,1.8,2471.589,13.29,0.06,130.3
2023-12-04T03:19:03,42.805,6.029,0.036,-0.013,0.005,108.0,110.0,106.0,13.4,1505.2,345.9,-0.8,1.8,2471.547,13.29,0.038,109.9
2023-12-04T03:22:03,42.805,6.029,0.029,-0.022,0.001,108.0,108.0,106.0,13.4,1505.2,343.3,-0.8,1.8,2471.596,13.29,0.036,127.2
2023-12-04T03:25:03,42.805,6.029,0.033,-0.043,-0.012,110.0,108.0,106.0,13.4,1505.2,352.6,-0.8,1.8,2471.539,13.29,0.054,142.5
2023-12-04T03:28:03,42.805,6.029,0.023,-0.026,-0.023,110.0,109.0,106.0,13.4,1505.2,1.5,-0.8,1.8,2471.504,13.29,0.034,138.5
2023-12-04T03:31:03,42.805,6.029,0.022,-0.031,-0.037,110.0,108.0,106.0,13.3,1505.2,345.3,-0.7,1.8,2471.544,13.29,0.038,144.6
2023-12-04T03:34:03,42.805,6.029,0.05,-0.04,-0.012,109.0,108.0,106.0,13.4,1505.2,354.4,-0.8,1.8,2471.518,13.29,0.064,128.7
2023-12-04T03:37:03,42.805,6.029,0.038,-0.01,0.006,111.0,109.0,106.0,13.4,1505.2,352.5,-0.8,1.8,2471.573,13.29,0.039,104.7
2023-12-04T03:40:03,42.805,6.029,0.016,-0.023,-0.015,109.0,109.0,106.0,13.3,1505.2,345.9,-0.7,1.8,2471.545,13.29,0.028,145.2
2023-12-04T03:43:03,42.805,6.029,0.046,-0.037,-0.015,110.0,109.0,107.0,13.3,1505.2,342.5,-0.8,1.8,2471.545,13.29,0.059,128.8
2023-12-04T03:46:03,42.805,6.029,0.036,-0.052,0.008,111.0,108.0,106.0,13.3,1505.2,356.3,-0.8,1.8,2471.537,13.29,0.063,145.3
2023-12-04T03:49:03,42.805,6.029,0.02,-0.031,-0.016,109.0,109.0,105.0,13.3,1505.2,345.1,-0.7,1.8,2471.563,13.29,0.036,147.2
2023-12-04T03:52:03,42.805,6.029,0.036,-0.039,-0.027,111.0,109.0,106.0,13.3,1505.2,346.8,-0.8,1.8,2471.591,13.29,0.053,137.3
2023-12-04T03:55:03,42.805,6.029,0.053,-0.042,0.021,110.0,109.0,106.0,13.4,1505.2,339.1,-0.7,1.8,2471.577,13.29,0.067,128.4
2023-12-04T03:58:03,42.805,6.029,0.057,-0.042,-0.006,110.0,109.0,107.0,13.4,1505.2,345.3,-0.8,1.8,2471.562,13.29,0.07,126.4
2023-12-04T04:04:03,42.805,6.029,0.036,-0.038,0.003,110.0,109.0,106.0,13.3,1505.2,343.3,-0.7,1.8,2471.578,13.28,0.052,136.5
2023-12-04T04:07:03,42.805,6.029,0.043,-0.051,-0.011,109.0,109.0,107.0,13.4,1505.2,357.6,-0.8,1.8,2471.612,13.28,0.066,139.9
2023-12-04T04:10:03,42.805,6.029,0.048,-0.068,-0.02,110.0,110.0,106.0,13.4,1505.2,348.8,-0.8,1.8,2471.598,13.29,0.083,144.8
2023-12-04T04:13:03,42.805,6.029,0.042,-0.036,-0.013,110.0,109.0,106.0,13.4,1505.2,340.8,-0.8,1.8,2471.574,13.29,0.055,130.6
2023-12-04T04:16:03,42.805,6.029,0.062,-0.032,-0.015,110.0,108.0,106.0,13.3,1505.2,347.4,-0.8,1.8,2471.56,13.29,0.069,117.3
2023-12-04T04:19:03,42.805,6.029,0.027,-0.038,-0.027,109.0,109.0,106.0,13.4,1505.2,358.1,-0.8,1.8,2471.543,13.29,0.046,144.6
2023-12-04T04:22:03,42.805,6.029,0.03,-0.052,0.0,110.0,108.0,106.0,13.4,1505.2,351.5,-0.7,1.8,2471.554,13.29,0.06,150.0
2023-12-04T04:25:03,42.805,6.029,0.05,-0.023,-0.021,109.0,109.0,106.0,13.4,1505.2,342.1,-0.8,1.8,2471.568,13.29,0.055,114.7
2023-12-04T04:28:03,42.805,6.029,0.041,-0.021,-0.014,110.0,108.0,105.0,13.3,1505.2,336.4,-0.7,1.8,2471.523,13.29,0.046,117.1
2023-12-04T04:31:03,42.805,6.029,0.031,-0.037,0.017,109.0,109.0,106.0,13.3,1505.2,343.7,-0.8,1.8,2471.544,13.29,0.048,140.0
2023-12-04T04:34:03,42.805,6.029,0.013,-0.055,-0.012,109.0,109.0,106.0,13.4,1505.2,353.5,-0.8,1.8,2471.584,13.29,0.056,166.7
2023-12-04T04:37:03,42.805,6.029,0.035,-0.034,0.01,109.0,109.0,106.0,13.4,1505.2,353.5,-0.8,1.8,2471.535,13.29,0.048,134.2
2023-12-04T04:40:03,42.805,6.029,0.035,-0.044,-0.024,110.0,108.0,105.0,13.4,1505.2,349.7,-0.7,1.8,2471.541,13.29,0.056,141.5
2023-12-04T04:43:03,42.805,6.029,0.047,-0.041,-0.023,109.0,108.0,105.0,13.4,1505.2,337.0,-0.8,1.8,2471.513,13.29,0.062,131.1
2023-12-04T04:46:03,42.805,6.029,0.042,-0.047,-0.001,110.0,108.0,106.0,13.4,1505.2,357.5,-0.8,1.8,2471.555,13.29,0.063,138.2
2023-12-04T04:49:03,42.805,6.029,0.031,-0.064,0.003,110.0,108.0,106.0,13.4,1505.2,0.8,-0.8,1.8,2471.554,13.29,0.071,154.2
2023-12-04T04:52:03,42.805,6.029,0.023,-0.053,-0.028,109.0,109.0,105.0,13.4,1505.2,353.0,-0.8,1.8,2471.505,13.29,0.057,156.5
2023-12-04T04:55:03,42.805,6.029,0.027,-0.045,-0.003,110.0,109.0,106.0,13.4,1505.2,353.1,-0.8,1.8,2471.552,13.29,0.052,149.0
2023-12-04T04:58:03,42.805,6.029,0.032,-0.042,-0.002,109.0,108.0,105.0,13.4,1505.2,1.7,-0.8,1.8,2471.543,13.29,0.052,142.7
2023-12-04T05:04:03,42.805,6.029,0.026,-0.018,-0.024,108.0,108.0,105.0,13.4,1505.2,337.9,-0.8,1.8,2471.574,13.28,0.031,124.7
2023-12-04T05:07:03,42.805,6.029,0.027,-0.052,0.003,109.0,108.0,106.0,13.4,1505.2,0.0,-0.8,1.8,2471.58,13.28,0.058,152.6
2023-12-04T05:10:03,42.805,6.029,0.066,-0.027,0.0,109.0,109.0,106.0,13.4,1505.2,341.8,-0.8,1.8,2471.559,13.29,0.071,112.2
2023-12-04T05:13:03,42.805,6.029,0.025,-0.029,-0.013,109.0,109.0,106.0,13.4,1505.2,352.7,-0.8,1.8,2471.535,13.29,0.038,139.2
2023-12-04T05:16:03,42.805,6.029,0.026,-0.042,-0.005,109.0,108.0,106.0,13.4,1505.2,350.0,-0.8,1.8,2471.597,13.29,0.049,148.2
2023-12-04T05:19:03,42.805,6.029,0.034,-0.064,-0.005,109.0,110.0,106.0,13.4,1505.2,352.4,-0.8,1.8,2471.557,13.29,0.072,152.0
2023-12-04T05:22:03,42.805,6.029,0.025,-0.035,-0.019,110.0,110.0,107.0,13.4,1505.2,347.4,-0.8,1.8,2471.494,13.29,0.043,144.5
2023-12-04T05:25:03,42.805,6.029,0.042,-0.034,-0.021,110.0,108.0,106.0,13.4,1505.2,353.3,-0.7,1.8,2471.565,13.29,0.054,129.0
2023-12-04T05:28:03,42.805,6.029,0.046,-0.052,0.009,109.0,108.0,106.0,13.4,1505.2,342.4,-0.8,1.8,2471.56,13.29,0.069,138.5
2023-12-04T05:31:03,42.805,6.029,0.042,-0.033,-0.012,110.0,110.0,106.0,13.3,1505.2,3.3,-0.8,1.8,2471.539,13.29,0.053,128.2
2023-12-04T05:34:03,42.805,6.029,0.04,-0.027,0.011,110.0,109.0,106.0,13.4,1505.2,346.1,-0.8,1.8,2471.556,13.29,0.048,124.0
2023-12-04T05:37:03,42.805,6.029,0.044,-0.042,0.021,110.0,110.0,107.0,13.4,1505.2,339.1,-0.8,1.8,2471.545,13.29,0.06,133.7
2023-12-04T05:40:03,42.805,6.029,0.057,-0.06,-0.002,111.0,109.0,107.0,13.3,1505.2,358.2,-0.8,1.8,2471.537,13.29,0.082,136.5
2023-12-04T05:43:03,42.805,6.029,0.03,-0.034,-0.026,109.0,108.0,106.0,13.4,1505.2,355.7,-0.8,1.8,2471.54,13.29,0.045,138.6
2023-12-04T05:46:03,42.805,6.029,0.042,-0.059,0.009,109.0,110.0,106.0,13.3,1505.2,340.8,-0.8,1.8,2471.52,13.29,0.072,144.6
2023-12-04T05:49:03,42.805,6.029,0.038,-0.045,-0.007,110.0,109.0,106.0,13.4,1505.2,350.8,-0.8,1.8,2471.493,13.29,0.058,139.8
2023-12-04T05:52:03,42.805,6.029,0.037,-0.047,0.0,111.0,109.0,106.0,13.3,1505.2,357.4,-0.8,1.8,2471.513,13.29,0.059,141.8
2023-12-04T05:55:03,42.805,6.029,0.018,-0.034,-0.019,110.0,109.0,107.0,13.3,1505.2,340.5,-0.7,1.8,2471.53,13.29,0.038,152.1
2023-12-04T05:58:03,42.805,6.029,0.039,-0.022,-0.009,109.0,110.0,107.0,13.4,1505.2,344.6,-0.7,1.8,2471.566,13.29,0.044,119.4
2023-12-04T06:04:03,42.805,6.029,0.012,-0.046,-0.001,110.0,109.0,107.0,13.3,1505.2,351.1,-0.7,1.8,2471.58,13.28,0.047,165.4
2023-12-04T06:07:03,42.805,6.029,0.044,-0.039,-0.002,110.0,109.0,107.0,13.4,1505.2,349.0,-0.7,1.8,2471.557,13.28,0.058,131.6
2023-12-04T06:10:03,42.805,6.029,0.038,-0.027,-0.022,111.0,110.0,107.0,13.3,1505.2,344.8,-0.7,1.8,2471.601,13.29,0.046,125.4
2023-12-04T06:13:03,42.805,6.029,0.022,-0.025,-0.016,109.0,108.0,106.0,13.4,1505.2,344.7,-0.8,1.8,2471.556,13.29,0.033,138.7
2023-12-04T06:16:03,42.805,6.029,0.034,-0.042,-0.045,110.0,108.0,107.0,13.4,1505.2,345.7,-0.8,1.8,2471.553,13.29,0.054,141.0
2023-12-04T06:19:03,42.805,6.029,0.053,-0.012,-0.006,110.0,109.0,106.0,13.4,1505.2,337.6,-0.8,1.8,2471.585,13.29,0.054,102.8
2023-12-04T06:22:03,42.805,6.029,0.042,-0.036,-0.019,111.0,109.0,106.0,13.3,1505.2,352.6,-0.8,1.8,2471.54,13.29,0.055,130.6
2023-12-04T06:25:03,42.805,6.029,0.023,-0.042,-0.02,110.0,109.0,106.0,13.4,1505.2,355.8,-0.8,1.8,2471.505,13.29,0.047,151.3
2023-12-04T06:28:03,42.805,6.029,0.038,-0.026,0.004,109.0,110.0,107.0,13.4,1505.2,347.4,-0.8,1.8,2471.586,13.29,0.046,124.4
2023-12-04T06:31:03,42.805,6.029,0.036,-0.045,-0.036,109.0,109.0,106.0,13.4,1505.2,340.3,-0.7,1.8,2471.586,13.29,0.057,141.3
2023-12-04T06:34:03,42.805,6.029,0.024,-0.031,-0.005,111.0,109.0,107.0,13.4,1505.2,351.3,-0.8,1.8,2471.546,13.29,0.039,142.3
2023-12-04T06:37:03,42.805,6.029,0.036,-0.035,-0.015,110.0,109.0,106.0,13.3,1505.2,349.7,-0.8,1.8,2471.537,13.29,0.05,134.2
2023-12-04T06:40:03,42.805,6.029,0.023,-0.047,0.0,109.0,109.0,106.0,13.4,1505.2,354.6,-0.7,1.8,2471.543,13.29,0.052,153.9
2023-12-04T06:43:03,42.805,6.029,0.027,-0.034,-0.008,110.0,110.0,107.0,13.3,1505.2,352.1,-0.8,1.8,2471.549,13.29,0.043,141.5
2023-12-04T06:46:03,42.805,6.029,0.037,-0.02,-0.018,110.0,109.0,106.0,13.4,1505.2,351.6,-0.8,1.8,2471.554,13.29,0.042,118.4
2023-12-04T06:49:03,42.805,6.029,0.031,-0.041,-0.009,110.0,109.0,107.0,13.3,1505.2,354.7,-0.8,1.8,2471.527,13.29,0.051,142.9
2023-12-04T06:52:03,42.805,6.029,0.047,-0.068,-0.016,111.0,109.0,105.0,13.3,1505.2,347.5,-0.8,1.8,2471.558,13.29,0.082,145.3
2023-12-04T06:55:03,42.805,6.029,0.056,-0.036,0.022,111.0,109.0,106.0,13.3,1505.2,337.5,-0.8,1.8,2471.536,13.29,0.066,122.7
2023-12-04T06:58:03,42.805,6.029,0.01,-0.043,-0.024,110.0,110.0,107.0,13.4,1505.2,349.9,-0.8,1.8,2471.577,13.29,0.044,166.9
2023-12-04T07:04:03,42.805,6.029,0.038,-0.046,0.012,110.0,109.0,107.0,13.4,1505.2,345.3,-0.8,1.8,2471.581,13.28,0.059,140.4
2023-12-04T07:07:03,42.805,6.029,0.032,-0.042,0.01,112.0,110.0,107.0,13.4,1505.2,354.5,-0.8,1.8,2471.615,13.29,0.052,142.7
2023-12-04T07:10:03,42.805,6.029,0.033,-0.056,-0.004,111.0,110.0,107.0,13.3,1505.2,352.7,-0.8,1.8,2471.584,13.29,0.064,149.5
2023-12-04T07:13:03,42.805,6.029,0.025,-0.021,-0.045,111.0,109.0,106.0,13.4,1505.2,337.0,-0.8,1.8,2471.609,13.29,0.032,130.0
2023-12-04T07:16:03,42.805,6.029,0.038,-0.039,0.021,110.0,109.0,106.0,13.3,1505.2,345.7,-0.8,1.8,2471.605,13.29,0.054,135.7
2023-12-04T07:19:03,42.805,6.029,0.024,-0.056,0.0,110.0,109.0,107.0,13.4,1505.2,342.3,-0.8,1.8,2471.6,13.29,0.06,156.8
2023-12-04T07:22:03,42.805,6.029,0.026,-0.04,-0.004,111.0,109.0,107.0,13.4,1505.2,352.0,-0.8,1.8,2471.56,13.29,0.047,147.0
2023-12-04T07:25:03,42.805,6.029,0.035,-0.029,-0.012,111.0,110.0,106.0,13.4,1505.2,342.3,-0.8,1.8,2471.562,13.29,0.045,129.6
2023-12-04T07:28:03,42.805,6.029,0.012,-0.027,0.021,110.0,110.0,107.0,13.4,1505.2,345.0,-0.8,1.8,2471.569,13.29,0.029,156.0
2023-12-04T07:31:03,42.805,6.029,0.039,-0.05,-0.01,110.0,109.0,106.0,13.4,1505.2,2.5,-0.8,1.8,2471.595,13.29,0.063,142.0
2023-12-04T07:34:03,42.805,6.029,0.041,-0.027,-0.007,111.0,110.0,107.0,13.4,1505.2,351.3,-0.8,1.8,2471.583,13.29,0.049,123.4
2023-12-04T07:37:03,42.805,6.029,0.024,-0.052,-0.015,111.0,109.0,107.0,13.4,1505.2,350.8,-0.8,1.8,2471.578,13.29,0.057,155.2
2023-12-04T07:40:03,42.805,6.029,0.025,-0.035,-0.028,110.0,109.0,106.0,13.4,1505.2,340.8,-0.8,1.8,2471.603,13.29,0.043,144.5
2023-12-04T07:43:03,42.805,6.029,0.025,-0.026,-0.01,111.0,109.0,107.0,13.3,1505.2,359.0,-0.7,1.8,2471.609,13.29,0.036,136.1
2023-12-04T07:46:03,42.805,6.029,0.018,-0.036,-0.013,110.0,108.0,106.0,13.4,1505.2,344.2,-0.8,1.8,2471.573,13.29,0.04,153.4
2023-12-04T07:49:03,42.805,6.029,0.022,-0.031,-0.023,110.0,109.0,107.0,13.4,1505.2,345.4,-0.8,1.8,2471.573,13.29,0.038,144.6
2023-12-04T07:52:03,42.805,6.029,0.02,-0.043,0.005,109.0,110.0,107.0,13.4,1505.2,1.6,-0.8,1.8,2471.588,13.29,0.047,155.1
2023-12-04T07:55:03,42.805,6.029,0.022,-0.068,-0.021,110.0,108.0,107.0,13.3,1505.2,348.8,-0.8,1.8,2471.552,13.29,0.071,162.1
2023-12-04T07:58:03,42.805,6.029,0.038,-0.046,-0.021,110.0,109.0,107.0,13.3,1505.2,337.0,-0.8,1.8,2471.551,13.29,0.059,140.4
2023-12-04T08:04:03,42.805,6.029,0.039,-0.038,-0.023,110.0,109.0,106.0,13.4,1505.2,340.4,-0.8,1.8,2471.66,13.28,0.054,134.3
2023-12-04T08:07:03,42.805,6.029,0.031,-0.041,-0.002,110.0,110.0,107.0,13.3,1505.2,345.0,-0.8,1.8,2471.628,13.28,0.051,142.9
2023-12-04T08:10:03,42.805,6.029,0.018,-0.05,-0.04,111.0,109.0,106.0,13.3,1505.2,0.0,-0.8,1.8,2471.651,13.29,0.053,160.2
2023-12-04T08:13:03,42.805,6.029,0.021,-0.045,-0.025,110.0,109.0,106.0,13.4,1505.2,350.9,-0.8,1.8,2471.651,13.29,0.049,155.0
2023-12-04T08:16:03,42.805,6.029,0.041,-0.047,-0.007,110.0,110.0,107.0,13.3,1505.2,344.1,-0.8,1.8,2471.607,13.29,0.062,138.9
2023-12-04T08:19:03,42.805,6.029,0.04,-0.034,-0.017,111.0,110.0,106.0,13.3,1505.2,345.0,-0.7,1.8,2471.615,13.29,0.052,130.4
2023-12-04T08:22:03,42.805,6.029,0.016,-0.029,-0.022,110.0,110.0,105.0,13.3,1505.2,350.9,-0.7,1.8,2471.615,13.29,0.033,151.1
2023-12-04T08:25:03,42.805,6.029,0.032,-0.057,-0.021,111.0,109.0,106.0,13.4,1505.2,354.9,-0.8,1.8,2471.658,13.29,0.065,150.7
2023-12-04T08:28:03,42.805,6.029,0.015,-0.061,-0.002,110.0,109.0,107.0,13.4,1505.2,2.5,-0.8,1.8,2471.612,13.29,0.062,166.2
2023-12-04T08:31:03,42.805,6.029,0.035,-0.042,0.007,111.0,109.0,106.0,13.3,1505.2,343.1,-0.8,1.8,2471.632,13.29,0.054,140.2
2023-12-04T08:34:03,42.805,6.029,0.04,-0.048,0.002,110.0,110.0,106.0,13.3,1505.2,354.7,-0.7,1.8,2471.63,13.29,0.062,140.2
2023-12-04T08:37:03,42.805,6.029,0.05,-0.028,-0.025,111.0,109.0,106.0,13.4,1505.2,345.0,-0.8,1.8,2471.6,13.29,0.057,119.3
2023-12-04T08:40:03,42.805,6.029,0.04,-0.025,0.0,110.0,109.0,107.0,13.4,1505.2,338.0,-0.8,1.8,2471.651,13.29,0.047,122.0
2023-12-04T08:43:03,42.805,6.029,0.015,-0.043,-0.025,111.0,110.0,105.0,13.3,1505.2,0.8,-0.8,1.8,2471.659,13.29,0.045,160.8
2023-12-04T08:46:03,42.805,6.029,0.027,-0.022,-0.023,110.0,109.0,107.0,13.4,1505.2,344.3,-0.8,1.8,2471.621,13.29,0.034,129.2
2023-12-04T08:49:03,42.805,6.029,0.033,-0.048,0.012,110.0,108.0,107.0,13.4,1505.2,340.1,-0.7,1.8,2471.648,13.29,0.058,145.5
2023-12-04T08:52:03,42.805,6.029,0.041,-0.04,-0.027,111.0,110.0,107.0,13.4,1505.2,353.6,-0.8,1.8,2471.638,13.29,0.057,134.3
2023-12-04T08:55:03,42.805,6.029,0.041,-0.039,-0.003,110.0,109.0,106.0,13.4,1505.2,343.3,-0.7,1.8,2471.633,13.29,0.056,133.6
2023-12-04T08:58:03,42.805,6.029,0.014,-0.044,-0.006,110.0,108.0,106.0,13.3,1505.2,353.0,-0.8,1.8,2471.652,13.29,0.046,162.4
2023-12-04T09:04:03,42.805,6.029,0.048,-0.052,-0.008,110.0,109.0,107.0,13.4,1505.2,356.2,-0.8,1.8,2471.692,13.28,0.07,137.3
2023-12-04T09:07:03,42.805,6.029,0.04,-0.045,-0.002,110.0,110.0,107.0,13.4,1505.2,355.7,-0.8,1.8,2471.669,13.29,0.06,138.4
2023-12-04T09:10:03,42.805,6.029,0.019,-0.022,-0.015,110.0,109.0,107.0,13.4,1505.2,340.3,-0.8,1.8,2471.668,13.29,0.029,139.2
2023-12-04T09:13:03,42.805,6.029,0.015,-0.042,-0.01,111.0,109.0,108.0,13.3,1505.2,342.6,-0.7,1.9,2471.71,13.29,0.044,160.4
2023-12-04T09:16:03,42.805,6.029,0.029,-0.034,-0.013,111.0,110.0,107.0,13.3,1505.2,341.3,-0.8,1.8,2471.666,13.29,0.044,139.5
2023-12-04T09:19:03,42.805,6.029,0.043,-0.053,-0.028,110.0,110.0,106.0,13.4,1505.2,355.5,-0.8,1.8,2471.697,13.29,0.068,140.9
2023-12-04T09:22:03,42.805,6.029,0.014,-0.046,-0.022,110.0,110.0,108.0,13.4,1505.2,357.5,-0.8,1.8,2471.682,13.29,0.048,163.1
2023-12-04T09:25:03,42.805,6.029,0.03,-0.055,0.005,110.0,109.0,106.0,13.4,1505.2,356.4,-0.8,1.8,2471.646,13.29,0.062,151.4
2023-12-04T09:28:03,42.805,6.029,0.029,-0.026,-0.021,111.0,110.0,108.0,13.4,1505.2,343.0,-0.7,1.8,2471.667,13.29,0.038,131.9
2023-12-04T09:31:03,42.805,6.029,0.008,-0.048,-0.009,111.0,110.0,107.0,13.4,1505.2,357.5,-0.8,1.8,2471.709,13.29,0.048,170.5
2023-12-04T09:34:03,42.805,6.029,0.022,-0.051,-0.028,110.0,110.0,107.0,13.4,1505.2,343.4,-0.8,1.8,2471.679,13.29,0.055,156.7
2023-12-04T09:37:03,42.805,6.029,0.039,-0.045,-0.003,111.0,110.0,107.0,13.3,1505.2,351.6,-0.8,1.8,2471.654,13.29,0.059,139.1
2023-12-04T09:40:03,42.805,6.029,0.021,-0.03,-0.019,110.0,109.0,107.0,13.3,1505.2,340.5,-0.7,1.8,2471.661,13.29,0.036,145.0
2023-12-04T09:43:03,42.805,6.029,0.029,-0.04,0.002,110.0,109.0,106.0,13.4,1505.2,358.2,-0.8,1.8,2471.687,13.29,0.049,144.1
2023-12-04T09:46:03,42.805,6.029,0.044,-0.045,0.011,111.0,109.0,107.0,13.3,1505.2,353.6,-0.8,1.8,2471.667,13.29,0.062,135.6
2023-12-04T09:49:03,42.805,6.029,0.023,-0.034,0.014,109.0,110.0,107.0,13.4,1505.2,337.2,-0.8,1.8,2471.66,13.29,0.041,145.9
2023-12-04T09:52:03,42.805,6.029,0.011,-0.043,-0.02,110.0,109.0,106.0,13.3,1505.2,352.8,-0.7,1.8,2471.657,13.29,0.044,165.7
2023-12-04T09:55:03,42.805,6.029,0.051,-0.053,-0.006,111.0,110.0,107.0,13.3,1505.2,343.1,-0.8,1.8,2471.682,13.29,0.073,136.1